Find Kosmos-1844

NORAD ID: 17973 Int'l Des: 1987-041 Owner: GRU Country: SU operational
LEOCIRCULAR

实时位置

正在加载3D地球...

关于 Kosmos-1844

正在加载描述...

即将过境

Passes for default location (London). Set your location on the main map for personalized predictions.

高度历史

Loading altitude history...

两行轨道根数

1 17973U 87041A 26104.04024713 -.00000078 00000-0 -15229-4 0 9991
2 17973 70.9004 319.6147 0032285 325.8134 34.0908 14.14564931 8589
Epoch: Apr 14, 2026 • Age: 14 hours

当前状态

高度 871.2 km
速度 7.41 km/s
星下点 35.00°N, 53.36°E
发射日期 May 13, 1987
运行时间 38.9 years
类型 other

技术详情

分类 Payload
质量 3250.00 kg
干质量 3250.00 kg
总质量 3250.00 kg
长度 4.50 m
直径 1.40 m
跨度 22.70 m
形状 Cyl + 2 Pan + Ant
制造商 YUZH
平台类型 Tselina-2
阶段状态 In Orbit
所有者/国家 GRU/SU

Most Searched